Year,Month,Count,Mean,Median,Standard_Deviation,Min,Max
1963,12,6,251.5,253,9.633275663,236.5,261.5
1964,1,20,242.42,242.1,13.5592501,223.5,262.6
1964,2,25,255.488,252.2,9.769012233,239.4,276.1
1964,3,30,259.5733333,260.95,11.2948549,240.8,291.8
1964,4,28,271.4285714,269.5,10.9009635,254.5,298.4
1964,5,30,276.4466667,279.4,10.19045305,259.5,293.4
1964,6,30,268.5333333,269.7,8.045188467,252.9,282.7
1964,7,30,269.8366667,270.6,7.500091187,256.1,290.1
1964,8,31,260.7483871,260.2,5.447866308,249.1,272.2
1964,9,30,256.4166667,255,6.113020774,248,272.1
1964,10,31,250.8677419,251.9,6.161622465,234.9,259.9
1964,11,30,252.7966667,254.15,6.624067056,237.1,265.1
1964,12,30,253.2533333,252.4,8.62009414,239.3,272.4
1965,1,30,258.4233333,256.05,10.70593401,240.6,282.6
1965,2,28,273.025,271.85,13.4215864,253.5,306.2
1965,3,30,272.3,272.4,9.336062819,251,297.6
1965,4,28,279.4785714,277.5,15.53441477,253.5,307.3
1965,5,27,274.8185185,271.4,13.30358648,255.5,305.5
1965,6,29,276.5896552,274.9,10.69500367,260.7,300.8
1965,7,31,266.6193548,265.1,7.66208933,246.1,282.1
1965,8,31,264.8483871,264.1,5.998492642,254.1,283.2
1965,9,30,261.3566667,261.95,5.285287539,249,271
1965,10,30,260.6333333,260.9,7.334064749,245.9,276.9
1965,11,28,247.9071429,247.6,13.08014975,206.1,271.9
1965,12,29,246.4931034,246.2,5.972312966,239.2,265.5
1966,1,30,241.4666667,242.5,8.379298519,224.5,263.6
1966,2,24,241.0625,241.3,10.39455595,226.4,264.3
1966,3,31,251.8774194,252,9.653348631,233,283.6
1966,4,28,270.7535714,268.55,10.77825253,246.7,292.4
1966,5,22,272.0272727,268.5,15.27500859,251.5,309.4
1966,6,24,271.2583333,268.2,11.22388434,255.9,295.5
1966,7,24,270.3416667,271.05,5.495999863,256,280.2
1966,8,26,271.5538462,270.7,5.707625129,259.1,281.2
1966,9,24,264.3541667,266.05,5.317238509,250,271
1966,10,25,255.34,256.9,6.416645022,244.9,266.9
1966,11,25,257.764,257,7.624569933,242,271.1
1966,12,24,248.6541667,246.45,6.239354702,238.3,265.5
1967,1,25,259.988,252.6,19.67886599,231.5,322.8
1967,2,21,269.0142857,267.2,12.36488114,254.5,304.3
1967,3,24,269.5833333,267.4,11.33626987,252.9,300.6
1967,4,19,293.1789474,295.4,13.01971065,274.6,324.4
1967,5,22,285.8772727,284.9,9.196424347,268.5,305.3
1967,6,23,276.1304348,275.6,7.539377523,261.8,291.6
1967,7,21,269.7142857,270.1,5.365564809,263.1,281.2
1967,8,22,269.2636364,269.6,5.857721437,252.2,279.2
1967,9,21,262.9714286,261.1,6.57062728,251,277
1967,10,23,260.073913,260.9,6.596501648,247.9,269.9
1967,11,26,264.9346154,262.15,9.018999603,254,288.1
1967,12,24,260.8416667,259.8,10.09136164,235.4,278.3
1968,1,15,258.92,259.6,11.10046331,242.6,279.6
1968,2,24,250.9208333,250.25,7.228805853,240.1,264.3
1968,3,23,269.4086957,272,8.650428946,246.1,279.9
1968,4,18,284.8111111,285.4,9.340543434,269.4,303.5
1968,5,21,283.6619048,284.5,7.504097294,270.4,297.3
1968,6,18,281.3,280.7,6.660595275,269.6,290.7
1968,7,23,277.1826087,277.1,6.994780663,268,295.2
1968,8,22,268.5818182,267.2,5.107663371,256.1,277.2
1968,9,20,266.115,265.55,4.697062352,257,273.1
1968,10,22,256.0363636,256.9,5.148235523,245.9,263.9
1968,11,18,239.6555556,239.05,7.729943476,225.1,254
1968,12,19,240.0368421,239.3,5.630986743,233.3,259.4
1969,1,20,240.83,238.05,10.82706647,221.5,263.5
1969,2,18,250.75,253.9,11.77236295,230.3,267.5
1969,3,20,260.635,261.45,8.212203692,245,275.7
1969,4,22,272.5363636,269.45,11.31823415,260.5,312.3
1969,5,18,280.75,282.4,11.96717324,257.4,302.4
1969,6,10,278,277.2,8.410046902,267.8,289.7
1969,7,9,272.5888889,268.2,12.09084824,261.2,301
1969,8,12,272.175,272.7,4.820623309,263.1,280.2
1969,9,13,268.5615385,267.1,6.0783137,261,282
1969,10,14,265.6142857,264.9,4.06539943,257.9,270.9
1969,11,12,260.9583333,258,11.5761085,246.1,289
1969,12,13,258.7615385,254.4,10.80328179,245.4,273.6
1970,1,12,244.625,245.5,7.160894434,233.5,257.5
1970,2,13,247.4769231,247.4,5.995714281,239.2,258.5
1970,3,14,280.2214286,280.4,12.0610102,262,299.8
1970,4,13,290.9307692,286.6,10.00786229,281.4,310.4
1970,5,12,290.5583333,290.9,12.47582814,267.4,310.4
1970,6,13,281.8076923,280.7,7.781758749,271.7,298.6
1970,7,14,275.0642857,277.6,9.046342835,249.1,283.2
1970,8,12,274.25,273.65,4.520760194,269.1,281.2
1970,9,11,270.7545455,267.1,8.229138914,259,282.1
1970,10,14,258.7571429,257.4,5.489250234,251.9,269.9
1970,11,11,253.4181818,254.1,6.355913496,241,261
1970,12,11,245.3636364,242.5,8.273605348,234.5,262.2
1971,1,3,242.2333333,237.5,12.68082542,232.6,256.6
1971,2,3,249.2,249.2,9,240.2,258.2
1971,3,10,260.22,258.05,12.03945366,243.8,281.9
1971,4,10,280.74,282.9,8.727377104,262.4,292.4
1971,5,12,280.5916667,278.9,17.19616545,261.5,322.4
1971,6,12,278.1416667,276.75,7.749540553,267.8,294.7
1971,7,10,274.12,272.6,11.01431392,258,290.2
1971,8,10,274.37,274.65,5.502938609,266.2,284.2
1971,9,14,269.9428571,269.5,4.169618002,264,277.1
1971,10,19,261.6894737,263.9,5.845976274,252.9,271.9
1971,11,21,261.747619,262,9.045530335,239.1,282
1971,12,21,271.7238095,270.4,16.056927,244.4,311.6
1972,1,20,261.49,260.1,8.940146001,249.6,283.7
1972,2,21,264.6142857,261.5,10.52968593,251.2,285.3
1972,3,14,271.6,265.85,12.6169605,257,293.7
1972,4,14,291.5214286,292,9.287558143,270.6,305.3
1972,5,22,292.75,294.35,11.67495284,270.4,315.4
1972,6,23,274.5130435,273.7,10.39559804,258.7,294.8
1972,7,19,277.7263158,273.2,16.87940369,263.1,337.2
1972,8,19,263.5315789,262.2,5.547677455,252.1,274.1
1972,9,16,268.95,267.05,12.18802691,247,292
1972,10,18,262.2333333,263.9,13.58632531,236.9,298.9
1972,11,21,249.5333333,249.2,6.198575105,239.1,261
1972,12,16,235.65,234.85,10.31904388,221.2,256.4
1973,1,21,235.5761905,238.6,10.39701422,217.5,257.5
1973,2,19,238.1368421,239.3,8.647813502,211.4,250.2
1973,3,16,271.2625,268.45,15.44033139,246.1,309.7
1973,4,16,275.8125,277.5,14.02463903,243.6,293.4
1973,5,17,287.9294118,286.5,11.01327408,261.4,310.3
1973,6,18,282.5222222,280.75,8.300783489,269.6,299.6
1973,7,18,278.8555556,279.1,7.296350596,264.2,292
1973,8,20,274.47,272.7,7.912688012,256.1,289.2
1973,9,14,269.3142857,270.55,4.494929989,261,275.1
1973,10,17,263.1352941,263.9,8.23505777,241.9,277.9
1973,11,12,261.8416667,263.95,8.771696046,248.2,276.9
1973,12,15,261.88,260.3,10.89791592,246.2,285.5
1974,1,17,257.9470588,254.6,16.85074619,231.5,284.6
1974,2,16,284.33125,285.25,11.15058855,263.5,306.4
1974,3,16,284.10625,279.3,16.27896265,261.9,317.8
1974,4,17,291.8764706,286.6,16.44994413,263.5,326.3
1974,5,15,296.9933333,300.3,15.02428827,269.5,326.3
1974,6,16,290.8875,291.1,13.48321796,272.8,314.9
1974,7,14,284.4214286,285.15,5.497157107,277.2,295
1974,8,18,273.95,274.7,6.03969711,259.1,285.2
1974,9,18,267.1222222,268.5,8.286669348,244,280
1974,10,20,261,260.9,10.0676658,240.9,281.9
1974,11,20,252.24,254.1,11.22583487,233,274
1974,12,18,234.3777778,234.75,6.767009554,222.3,249.2
1975,1,16,236.7125,236,5.422898979,228.5,246.5
1975,2,16,255.8,257.85,5.911796117,243.5,262.3
1975,3,20,266.57,266.3,7.459652877,251.7,283.1
1975,4,22,276.4409091,275,10.38096514,255.5,294.5
1975,5,20,287.105,283.45,12.54073258,265.5,315.3
1975,6,21,283.7857143,285.9,8.655881568,264.9,297.6
1975,7,20,283.74,285.1,11.98847692,250.1,304
1975,8,21,276.9857143,277.1,7.586454094,262.2,293.2
1975,9,21,270.4952381,271.9,9.249674383,237,283
1975,10,21,264.3761905,264.9,9.516401881,242.9,279.9
1975,11,20,254.64,255.45,11.51595689,234,273.1
1975,12,20,261.11,262.35,10.54852946,240.4,274.3
1976,1,18,261.3111111,255.6,14.52133882,239.6,289.7
1976,2,16,262.71875,259.9,16.04490444,239.3,294.2
1976,3,16,287.225,290.45,15.30370326,266,307.7
1976,4,21,291.1619048,298.3,18.93849192,262.5,316.3
1976,5,20,294.3,294.9,15.02818405,269.5,340.3
1976,6,26,280.9,279.4,11.19760689,264.8,307.6
1976,7,30,269.1066667,267.15,8.959253869,258.2,293.1
1976,8,26,272.5961538,274.2,7.234333737,260.1,284.1
1976,9,20,268.515,268.5,7.219073785,249.9,280
1976,10,21,262.4238095,261.9,5.537319276,254.9,276.9
1976,11,18,256.6666667,255.6,8.13763949,242,273.1
1976,12,20,246.91,248.4,9.215027772,232.3,262.5
1977,1,21,241.2142857,243.6,10.36095004,218.5,255.6
1977,2,18,248.9,246.45,11.07939264,229.4,274.1
1977,3,22,273.1363636,273.4,10.48116431,258.1,294.7
1977,4,15,292.88,293.5,8.32519412,277.6,307.4
1977,5,18,291.5055556,291.9,12.81104635,260.4,312.3
1977,6,22,293.6363636,293.15,11.66674335,265.8,319.7
1977,7,19,276.0894737,275.2,7.786376617,264.2,293.1
1977,8,22,271.5318182,271.15,7.517116111,260.2,290.2
1977,9,20,257.37,257.45,7.168432259,243,268.1
1977,10,18,250.2888889,251.9,7.429186393,227.9,258.9
1977,11,21,235.2285714,235.1,10.88132082,206.1,254
1977,12,21,232.6238095,229.3,8.07111546,220.2,254.4
1978,1,20,236.03,237.6,10.31616514,219.5,253.6
1978,2,19,233.9315789,230.4,12.37345064,211.3,265.2
1978,3,23,256.1,258,10.42091429,236.1,271.9
1978,4,21,280.6761905,282.4,6.850832414,267.6,294.5
1978,5,19,282.8894737,283.4,11.45740395,261.4,302.3
1978,6,22,269.75,268.7,10.87560617,250.8,290.6
1978,7,16,271.15,271.15,9.580048712,256,289.2
1978,8,18,265.3333333,268.15,7.697746041,250.1,274.2
1978,9,19,262.9684211,264,7.686355344,246,278
1978,10,21,255.5190476,254.9,6.553443297,243.9,267.9
1978,11,18,255.1777778,253.7,8.901589782,244.2,280
1978,12,20,255.965,254.8,11.8038475,233.4,290.5
1979,1,20,259.795,259.1,10.92382596,240.6,281.6
1979,2,16,259.93125,260.95,8.807702595,244.3,273.2
1979,3,21,281.8333333,281.8,13.84432495,249,307.7
1979,4,20,292.615,291.55,11.37616507,273.6,317.3
1979,5,22,294.3863636,288.9,16.72484025,261.5,329.3
1979,6,20,283.78,281.25,8.114224028,269.8,299.8
1979,7,21,276.9047619,277.1,5.613062995,265.1,285
1979,8,23,272.4304348,271.1,8.143175323,260.1,286.2
1979,9,19,269.8157895,270,6.284041795,257,284
1979,10,21,258.1857143,256.9,11.34523185,237.9,277.9
1979,11,19,255.9526316,256.9,9.230346594,234.2,275
1979,12,20,239,239.5,5.728322984,230.4,247.2
1980,1,18,239.65,238,13.29813123,214.4,270.6
1980,2,19,236.2210526,236.4,13.02337979,208.4,256.1
1980,3,17,256.5705882,255.9,5.875347299,246.9,270.7
1980,4,21,268.5857143,266.6,10.65787435,252.5,295.4
1980,5,21,284.6571429,281.4,17.41420602,261.4,339.3
1980,6,17,271.1647059,268.6,12.07512635,255.9,290.7
1980,7,21,266.4714286,265.1,12.28259512,241.1,303.2
1980,8,19,265.5894737,265.2,4.128343054,257.1,271.2
1980,9,20,258.165,258.5,9.350275819,245,281
1980,10,22,259.0818182,258.9,5.534621453,248.9,274.9
1980,11,18,249,250.55,8.271567175,232.2,261
1980,12,22,246.6318182,245.85,10.52318919,229.5,262.4
1981,1,20,237.585,239.05,11.31772132,223.5,264.6
1981,2,16,248.40625,248.35,9.016390168,233.3,264.2
1981,3,21,263.8761905,260.8,13.74575952,239,290.6
1981,4,21,281.9,284.4,10.40086535,259.4,299.6
1981,5,20,276.22,271.9,11.23713768,263.5,302.4
1981,6,18,269.1611111,268.6,6.359813065,256.8,279.7
1981,7,21,265.4714286,264.2,4.087804161,260.1,275.2
1981,8,18,264.5555556,265.15,5.518868407,253.2,275.1
1981,9,20,263.57,262.55,6.98110985,251.1,280.1
1981,10,20,259.05,257.4,9.783310171,246.9,283.9
1981,11,17,249.5647059,249.9,5.976301237,237.1,260
1981,12,21,248.6,248.5,8.554063362,233.4,270.2
1982,1,18,249.4055556,249.1,9.225825149,231.5,269.6
1982,2,8,246.2,247.8,13.83577144,228.4,261.4
1982,3,14,276.9642857,272.85,16.91065241,260.7,312.1
1982,4,16,283.15,284,8.33770552,268.6,297.5
1982,5,22,280.8772727,279.95,7.633443448,268.5,299.3
1982,6,21,266.7047619,266.9,11.61557042,241.7,285.8
1982,7,19,262.1842105,260.2,9.307599234,247.2,275.1
1982,8,21,258.0285714,256.2,10.97598027,239.2,281.2
1982,9,21,250.2095238,252,5.306402243,236,258
1982,10,17,240.8411765,241.9,8.392486135,228.9,252.9
1982,11,18,230.3166667,229.55,8.857449507,206,245
1982,12,18,229.8722222,231.25,7.710634792,214.2,246.2
1983,1,16,218.75,216.95,9.443375103,206.4,237.6
1983,2,18,228.6388889,231.2,9.915296495,209.1,243.4
1983,3,21,240.6142857,237.1,10.13233861,225,260.7
1983,4,18,267.7833333,268,9.485856344,241.5,282.5
1983,5,20,264.605,264,11.48195266,244.5,281.5
1983,6,18,273.4722222,269.15,11.42874629,258.6,297.5
1983,7,16,262.13125,260.6,10.40145623,250.2,283.1
1983,8,16,256.225,261.6,12.05501279,224.1,266.2
1983,9,14,257.8142857,256.55,4.892357799,252.1,268
1983,10,18,251.2888889,250.9,11.33001682,231.9,267.9
1983,11,16,245.025,245,7.969650766,231,259.9
1983,12,17,247.8941176,247.5,7.847170715,232.3,269.4
1984,1,11,238.6454545,241.6,10.00213614,227.5,256.6
1984,2,20,264.525,264.45,13.29803606,232.4,286.3
1984,3,18,255.7722222,255.45,11.06742999,236.9,280.1
1984,4,11,292.8727273,286.4,13.37146895,278.4,318.4
1984,5,23,267.626087,274.4,27.76739778,211.6,315.4
1984,6,27,274.0555556,273.7,7.202581446,263.8,292.5
1984,7,22,272.1318182,271.65,4.36167141,266,282.2
1984,8,23,270.2173913,269.2,5.323417577,260.1,287.2
1984,9,29,264.9793103,265.1,5.811588135,254,278.9
1984,10,24,253.2333333,253.9,6.657239712,233.9,261.9
1984,11,26,239.7461538,242,12.69482511,184.1,252
1984,12,24,240.5125,235.45,14.23374168,226.4,276.4
1985,1,28,230.0785714,230,9.8913489,215.5,256.5
1985,2,21,231.3619048,230.4,13.55516419,211.4,274.2
1985,3,15,248.3733333,248.7,4.557954846,237.8,256.9
1985,4,19,269.9736842,270.6,8.594044586,252.6,282.5
1985,5,28,281.4285714,280.45,12.91814277,238.5,304.3
1985,6,29,275.8034483,272.8,12.4691185,257.7,314.5
1985,7,27,263.3555556,260.2,8.477133647,252,291.2
1985,8,27,262.9074074,260.2,6.999940985,253.1,276.2
1985,9,30,262.29,262.05,6.748146617,253,286.9
1985,10,26,253.6307692,254.9,8.969092227,235.9,269.9
1985,11,29,256.1137931,255,8.682689023,243,277.2
1985,12,30,245.87,243.9,13.14783711,222.4,268.4
1986,1,28,239.4392857,237.55,12.54250076,218.4,267.6
1986,2,26,256.6192308,256.25,11.99710029,224.4,278.3
1986,3,28,264.6928571,268.35,12.88941365,240,282.6
1986,4,22,284.2863636,287,8.391565803,266.5,293.4
1986,5,29,276.4068966,273.4,10.12242669,260.5,303.3
1986,6,27,273.1555556,273.8,6.059660649,258,283.7
1986,7,26,263.7846154,264.15,8.744721485,244.2,278.1
1986,8,23,256.6304348,255.2,6.869063373,236.2,268.1
1986,9,23,256.0608696,256.9,6.656489597,240,268.1
1986,10,30,255.0333333,255.9,4.875931977,244.9,264.9
1986,11,23,244.1652174,243.2,6.84746859,230.1,260
1986,12,27,248.9814815,248.3,10.09684022,235.4,291.3
1987,1,27,244.0888889,242.6,8.744287513,229.5,267.6
1987,2,25,235.168,238.1,8.850128059,220.3,250.3
1987,3,30,256.3133333,252.95,11.56044783,238,276.7
1987,4,26,270.8384615,270.5,9.633735596,253.6,289.4
1987,5,20,286.265,284.9,10.65661519,272.4,313.4
1987,6,29,285.5655172,282,10.53122147,271.7,315.7
1987,7,29,273.1310345,274.1,9.184112969,251.2,291
1987,8,31,262.5225806,263.2,5.530744958,250.2,276.1
1987,9,27,259.5074074,258.1,6.963527285,244,276
1987,10,27,248.1592593,247.9,7.886661537,226.9,261.9
1987,11,28,246.3714286,245,7.587995253,222.9,266
1987,12,24,233.8041667,235.45,8.21252909,216.5,246.3
1988,1,21,226.1809524,225.5,9.469721171,213.4,249.6
1988,2,24,238.8208333,240.85,9.020121428,223.2,252.3
1988,3,17,261.2235294,260.9,14.52000901,236.1,287.7
1988,4,25,275.864,274.4,15.29986057,252.5,313.4
1988,5,31,282.883871,282.4,13.80343186,259.4,316.4
1988,6,26,270.6923077,269.3,10.06061323,253.6,293.7
1988,7,28,271.6035714,271.7,5.273517495,262.1,281.1
1988,8,27,263.2037037,264.2,7.040240461,250.1,274.2
1988,9,27,258.7962963,260,7.51861697,240.1,273.1
1988,10,29,262.4862069,261.9,3.727477521,256.9,273.9
1988,11,20,257.965,258.7,7.31115046,244,271.1
1988,12,25,253.604,253.5,11.12416589,237.4,279.6
1989,1,25,260.068,258.6,7.975364151,247.6,283.6
1989,2,23,270.6695652,271.2,13.33891896,248.1,293.4
1989,3,26,274.8615385,273.95,7.030111062,261.1,290.6
1989,4,16,293.8375,290.95,13.46085064,277.6,327.3
1989,5,16,299.0875,297.4,9.792846028,282.5,316.3
1989,6,15,282.3666667,279.8,6.239925213,269.9,292.7
1989,7,25,278.656,276.2,6.870958206,271,295.1
1989,8,30,273.6066667,273.7,2.933273249,268.2,280.1
1989,9,30,274.1933333,273.1,5.363988051,266,286
1989,10,22,262.9454545,263.9,5.295795931,250.9,268.9
1989,11,24,251.8375,252.55,5.853190323,238,262
1989,12,28,245.5642857,243.85,6.563717007,235.2,256.5
1990,1,11,248.2818182,251.5,9.211603355,236.6,258.5
1990,2,23,248.5478261,245.4,10.14745242,236.4,278.3
1990,3,24,261.8375,255.05,19.37128786,239.9,311.6
1990,4,24,274.0333333,272.5,6.154932039,258.4,283.6
1990,5,30,283.0266667,283.4,8.160287915,269.4,301.4
1990,6,28,273.775,276.55,10.51276561,251.8,292.6
1990,7,31,272.9387097,273.2,6.524756824,259,291
1990,8,29,271.5206897,271.1,6.755123945,256.2,283.2
1990,9,23,267.4565217,267.1,5.124347061,258,278.1
1990,10,26,261.8230769,261.9,5.410531042,251.9,271.9
1990,11,22,257.5454545,257.2,6.344305829,248.1,271
1990,12,25,256.956,259.2,10.80127616,236.2,279.5
1991,1,27,245.462963,246.6,8.415148801,223.4,262.6
1991,2,25,236.496,235.4,9.434267327,221.3,262.2
1991,3,21,274.4,274.1,10.21704458,255.1,295.9
1991,4,28,294.8107143,297,13.69921164,275.6,320.4
1991,5,28,293.4035714,291.9,12.18911117,273.5,319.4
1991,6,27,282.9666667,283.6,15.47113938,255,329.5
1991,7,25,272.652,273.1,8.081672682,258.1,287.2
1991,8,17,266.3470588,265.2,6.975324154,255.2,281.2
1991,9,27,258.7962963,260,9.37293491,246,291.1
1991,10,27,251.7518519,252.9,7.273258204,234.9,267.9
1991,11,28,243.2285714,243.65,9.145282416,226.1,259.9
1991,12,28,238.4928571,237.85,13.34377171,216.3,263.5
1992,1,30,235.6633333,235.05,6.35851226,225.5,250.6
1992,2,27,254.1925926,255.4,8.757235511,235.2,269.5
1992,3,31,262.0870968,260.9,9.500973351,242.1,279.7
1992,4,29,273.3172414,272.6,8.629230597,252.5,296.4
1992,5,30,277.8766667,279.4,9.267171697,260.5,293.4
1992,6,29,274.7310345,275.6,7.124961326,261,293.7
1992,7,28,258.9142857,258.6,3.110164255,253.1,266.1
1992,8,28,258.0607143,256.2,8.684909829,242.1,281.2
1992,9,13,251.8769231,251.1,7.448171347,240.1,265.9
1992,10,25,242.94,244.9,6.406246951,228.9,250.9
1992,11,16,234.40625,233.05,4.597168513,225,242
1992,12,20,227.31,230.4,10.20969096,207.3,242.4
1993,1,21,223.6,220.5,7.245688373,215.5,236.5
1993,2,28,233.975,235.8,11.67918773,211.4,254.2
1993,3,29,247.3,246.1,7.622101323,235.8,266.7
1993,4,29,260.7896552,262.6,9.366556953,242.5,281.4
1993,5,19,273.7736842,272.4,6.817285392,262.4,284.5
1993,6,16,262.6375,261.2,10.45835392,248.9,293.5
1993,7,27,258.7185185,256.2,8.009179207,248.1,276.2
1993,8,27,258.2703704,258.2,5.912751202,244.1,268.2
1993,9,28,257.7071429,257.55,6.974818653,247,272
1993,10,26,254.4,253.9,7.234638899,240.9,271.9
1993,11,29,250.1103448,250.9,7.400981828,231.1,262.1
1993,12,30,245.26,243.8,9.865635237,225.4,268.3
1994,1,24,245.4333333,246.1,8.310897334,226.5,257.6
1994,2,15,259.1866667,261.2,9.149931043,245.5,274.3
1994,5,6,272.6666667,274.5,8.328665359,259.5,280.5
1994,6,29,271.9517241,272.7,7.78343574,257.6,288.8
1994,7,25,267.22,268.1,6.545863834,249.2,277.1
1994,8,25,265.936,266.2,4.98379708,255.2,274.1
1994,9,25,258.788,261,7.150076923,244,270
1994,10,24,256.4,255.9,6.02169989,240.9,269.9
1994,11,23,240.7913043,241.1,8.931553517,225.2,256
1994,12,31,222.8032258,224.3,12.09213198,201.4,244.2
1995,1,28,217.525,218,8.478758863,194.4,231.5
1995,2,27,224.0888889,224.3,7.925777483,209.4,242.1
1995,3,8,250.375,251.35,14.41356008,234,265.7
1995,4,24,263.7166667,264.05,13.16922191,237.6,286.4
1995,5,28,276.5428571,280.95,12.83301381,244.5,295.5
1995,6,29,272.5034483,272.9,7.711377622,253.8,285.6
1995,7,31,257.4193548,257.1,6.808838342,245.2,274
1995,8,30,259.3,258.65,4.038606793,253.1,266.2
1995,9,30,256.2566667,255.5,4.720219409,248.1,268
1995,10,29,252.762069,250.9,7.342265794,239.9,266.9
1995,11,22,253.6863636,249.6,12.50372499,237,278
1995,12,24,237.7375,237.85,11.32818004,216.3,253.4
1996,1,24,243.8541667,245.05,8.089014513,223.5,254.6
1996,2,24,249.3958333,245.9,13.14128838,230.4,276.2
1996,3,11,268.6181818,267.9,8.900428999,254.7,280.8
1996,4,25,273.248,273.4,5.429711472,264.4,283.4
1996,5,29,278.2,275.4,12.11990688,256.5,310.3
1996,6,26,274.6884615,273.25,12.79025651,251.9,299.8
1996,7,27,267.4,270,7.998413304,249.2,281.1
1996,8,30,261.3666667,261.2,5.692301718,253.1,279.2
1996,9,28,255.8,255.05,5.184663995,247,269
1996,10,27,252.7518519,251.9,7.644523951,239.9,267.9
1996,11,24,240.3,239.55,6.438471328,233.1,261.1
1996,12,23,238.8217391,237.4,11.54394594,215.4,265.3
1997,1,25,226.06,226.5,6.829409443,211.5,238.6
1997,2,23,247.0869565,240.4,19.64452976,231.2,327.2
1997,3,3,250.1,250.1,8,242.1,258.1
1997,5,9,264.3,264.5,6.817807565,254.6,274.5
1997,6,29,271.2551724,270.7,9.69563916,255.9,288.7
1997,7,30,264.0966667,263.65,6.325017832,250.1,278.1
1997,8,27,257.7185185,255.2,6.70373243,245.1,271.2
1997,9,22,255.5681818,253.55,7.097242011,247.1,271
1997,10,27,253.5296296,253.9,5.414710363,241.9,262.9
1997,11,25,253.724,255,7.52735456,232,263
1997,12,31,246.4032258,245.2,9.365806029,233.5,270.4
1998,1,27,229.3888889,229.5,5.186916479,222.4,241.6
1998,2,28,243.7285714,243.4,11.47899393,224.4,264.2
1998,3,29,262.1965517,256.1,14.02486269,239.9,290.7
1998,4,27,274.3074074,277.6,10.06960109,256.4,288.6
1998,5,30,278.46,274.45,14.06412899,261.4,330.3
1998,6,27,281.4185185,275.7,18.15366115,261.7,326.5
1998,7,31,270.9709677,272.2,6.288783324,256,280.2
1998,8,26,262.0269231,261.7,4.331610111,252.2,268.2
1998,9,28,264.0607143,265.1,6.09980809,248,276.1
1998,10,29,254.2103448,253.9,6.112653435,242.9,268.9
1998,11,25,246.244,249,6.051589323,234.1,254
1998,12,28,236.7892857,235.4,7.922978269,219.5,248.3
1999,1,25,234.68,231.5,13.58743292,216.5,258.5
1999,2,24,234.7666667,234.3,12.70726142,216.3,268.4
1999,3,26,260.7269231,252.85,21.28459645,237,298.7
1999,4,25,284.18,283.6,8.822839679,268.5,301.5
1999,5,22,275.9318182,275.9,7.369976828,262.5,292.4
1999,6,30,270.42,268.9,6.720088259,261.8,291.6
1999,7,29,266.137931,264.2,6.374974162,257.2,284
1999,8,30,263.6733333,263.65,3.908252395,255.2,272.1
1999,9,27,263.3851852,264,6.972677651,248,279.1
1999,10,27,257.9740741,255.9,6.764874926,248.9,272.9
1999,11,22,256.2681818,254.55,8.891375509,239,271.2
1999,12,11,250.2363636,249.2,11.4909767,228.4,276.2
2000,1,19,259.5842105,261.6,10.2225928,243.5,273.6
2000,2,15,266.6266667,267.2,6.194175451,251.3,274.2
2000,3,26,269.8461538,268.45,11.64869884,249,304.7
2000,4,26,283.5923077,284.9,11.34400011,262.6,305.4
2000,5,27,276.6592593,275.4,6.916271742,263.6,292.4
2000,6,25,270.804,269.9,6.393713058,261,288.7
2000,7,26,264.8769231,263.7,8.351445752,253.1,282.2
2000,8,22,263.1181818,264.65,6.781391651,243.1,271.2
2000,9,24,254.8333333,254,4.217939603,246.1,264
2000,10,25,253.74,254.9,6.162250671,241.9,264.9
2000,11,25,251.592,250.2,5.744992022,240,264
2000,12,31,239.2419355,241.3,9.281442926,221.4,255.3
2001,1,29,248.5034483,247.6,8.111741171,236.5,263.6
2001,2,23,252.8826087,254.5,8.520971571,236.2,269.3
2001,3,28,266.7964286,265.35,13.81546321,247.1,301.9
2001,4,28,280.0464286,279.05,9.252486438,259.4,297.4
2001,5,31,285.6709677,282.4,11.28873165,273.4,319.3
2001,6,25,277.728,278.6,6.361834117,266.8,291.6
2001,7,30,269.27,267.15,8.09491752,252,287.1
2001,8,30,270.1033333,270.2,5.948658692,260.1,281.2
2001,9,25,262.744,263.1,5.003588712,251.1,273.1
2001,10,27,248.7518519,248.9,9.493737627,231.9,264.9
2001,11,22,239.9545455,241.05,10.00365301,216.1,260
2001,12,24,232.9708333,233.2,7.392268533,218.5,251.3
2002,1,25,229.036,228.5,8.756563253,210.5,245.6
2002,2,27,232.9740741,230.4,9.271195782,218.2,255.4
2002,3,27,243.9333333,244,12.14375433,220.1,265.7
2002,4,25,258.684,258.5,12.28436269,243.6,282.4
2002,5,22,269.3636364,267.45,9.73288708,253.4,294.4
2002,6,29,270.9517241,271.6,7.04296106,255.9,283
2002,7,28,265.3857143,267.2,8.937756545,249.1,282.1
2002,8,30,258.0366667,257.2,6.724862944,245.1,272.2
2002,9,25,251.424,251,5.372715018,238,263
2002,10,22,251.3545455,251.9,9.256798134,219.9,265.9
2002,11,27,253.1962963,253,9.641635733,231.2,278.1
2002,12,27,240.7185185,238.4,8.530580151,227.4,261.5
2003,1,27,233.4888889,233.5,7.72226219,219.5,250.5